Location: Bakov nad Jizerou
(50.4784°N, 14.9394°E)
Time: 07:31:42
(UTC+00:00)

Cosmos 1626 - Pass Details

Date: 16 June 2021
Orbit: 488 x 493 km, 82.5° (Epoch: 04 August)

Event Time Altitude Azimuth Distance (km) Brightness Sun altitude
Exits shadow 19:52:55 - 141° (SE) 1,947 4.4 -5.3°
Reaches altitude 10° 19:53:45 10° 133° (SE) 1,685 4.1 -5.4°
Maximum altitude 19:56:23 19° 87° (E) 1,232 3.8 -5.6°
Drops below altitude 10° 19:59:03 10° 41° (NE) 1,698 4.9 -5.9°
Sets 20:01:36 0° 24° (NNE) 2,587 6.1 -6.2°
